Wind_Speed
36 36 37 38 38 39 39 39 39 40 42 42 43 44 44 44 45 46 48 49 50 50 49 49 48 47 47 47 47 48 49 49 51 53 54 53 53 52 52 51 50 48 51 57 60 60 61 60 61 62 61 59 57 55 54 54 55 55 54 53 51 50 53 57 60 64 67 68 68 69 68 66 65 65 63 61 59 56 55 54 51 45 41 40 41
39 39 40 40 40 40 41 41 42 43 44 45 45 46 46 47 47 48 50 51 52 51 50 49 48 47 46 46 47 48 50 50 52 53 53 53 53 53 53 53 52 51 53 56 57 59 61 62 63 63 61 59 57 57 57 57 58 58 58 57 56 58 59 60 61 62 66 69 70 70 70 69 70 70 67 63 60 58 56 55 50 44 41 40 41
42 42 42 42 42 43 43 44 44 45 46 46 46 48 48 48 49 50 51 53 53 52 51 50 49 47 46 46 47 48 49 50 51 52 53 53 54 53 53 52 51 51 52 54 56 60 62 63 62 61 60 59 59 60 60 61 61 61 62 61 61 60 59 59 61 63 66 69 72 72 72 72 73 72 69 65 62 59 56 53 48 43 41 41 41
45 45 44 44 45 45 45 46 46 47 48 48 49 50 50 50 51 51 53 55 55 54 52 51 49 47 46 46 46 47 48 50 51 52 53 54 55 54 52 50 48 50 53 55 57 59 60 59 60 60 61 61 62 62 63 63 64 65 65 63 60 59 60 62 64 66 67 70 73 75 74 73 72 71 69 66 63 59 55 51 46 43 43 43 43
48 47 46 46 47 47 48 48 49 49 49 49 51 52 53 53 53 53 54 56 56 55 53 51 49 48 47 46 47 48 50 52 53 54 55 56 55 55 54 52 52 53 55 56 56 56 56 57 58 60 61 62 64 65 66 67 68 68 67 64 62 63 65 66 67 68 69 71 73 75 75 72 69 69 68 66 63 59 55 49 45 44 45 46 45
51 50 49 49 49 50 50 51 51 51 51 51 52 54 54 55 55 56 56 56 57 56 54 52 50 49 48 48 49 50 52 53 54 55 57 57 57 57 56 55 55 55 55 54 54 53 54 56 59 61 63 65 68 69 70 70 70 69 67 65 66 67 68 69 70 71 72 72 72 72 72 71 69 68 67 65 62 58 54 50 48 48 48 48 48
53 53 52 52 52 52 53 53 54 53 53 53 54 55 56 57 57 58 57 57 57 56 54 53 51 50 50 50 51 53 54 56 57 57 56 57 59 59 58 57 56 55 55 55 55 55 57 60 62 65 66 68 70 71 70 69 68 67 67 68 68 69 70 72 73 74 74 73 71 69 68 69 69 68 66 64 61 57 54 53 53 52 51 51 51
55 55 55 55 54 55 55 56 56 56 56 56 56 57 58 58 59 59 58 57 57 56 55 53 52 52 52 53 54 56 57 57 57 56 56 60 62 60 57 56 57 58 58 59 59 59 60 62 64 66 67 68 68 68 67 67 68 68 69 69 70 71 73 74 76 77 75 73 70 66 64 66 68 66 64 62 60 58 58 57 56 55 55 55 55
58 58 58 57 57 57 57 58 58 59 59 59 58 58 59 60 60 59 59 57 56 56 55 54 54 54 54 55 56 57 57 57 57 58 61 63 62 57 54 57 60 61 62 63 63 63 64 65 65 66 66 66 66 65 66 67 68 70 71 72 74 75 76 77 78 77 75 71 67 64 65 66 65 63 62 60 59 59 60 59 58 59 59 59 59
60 60 60 60 59 59 59 59 60 60 61 61 61 61 61 61 61 60 59 58 56 56 55 55 55 55 55 57 58 58 59 58 58 61 62 61 57 54 56 61 64 65 67 68 67 67 66 66 66 65 65 65 65 66 67 68 70 71 73 75 77 78 80 80 78 75 72 69 67 67 67 65 62 62 62 61 60 61 61 61 61 62 62 62 62
62 62 62 62 62 61 61 61 61 61 61 62 62 63 63 63 62 61 60 58 57 57 56 55 55 56 57 59 59 60 61 60 60 61 60 58 56 57 61 66 67 69 71 70 69 68 67 66 65 65 65 65 66 66 67 68 70 72 74 77 80 81 82 81 77 74 72 71 71 70 66 62 63 64 64 63 63 63 62 63 64 65 66 65 64
64 64 64 64 64 64 64 64 64 63 62 62 63 64 64 64 63 62 60 58 58 57 57 56 56 57 59 60 61 63 63 62 61 60 58 58 60 62 66 69 70 71 71 69 68 67 66 66 65 65 66 66 67 68 69 70 71 74 77 81 82 82 82 81 78 76 74 72 69 66 63 64 65 66 67 67 66 64 64 66 67 68 68 67 65
66 66 66 66 66 66 66 66 66 65 65 64 64 64 64 64 63 61 60 59 58 58 58 58 58 59 61 62 64 64 63 61 59 57 58 60 63 65 68 70 70 71 70 68 66 65 64 65 65 65 67 68 69 70 71 72 75 77 80 83 82 80 80 81 80 78 76 72 67 64 66 68 68 68 70 69 66 67 68 69 70 69 69 68 65
67 68 68 68 68 68 68 67 67 67 66 66 66 65 65 64 63 62 60 59 59 59 59 60 61 62 62 62 65 65 61 59 58 59 61 63 65 67 69 69 69 69 68 66 65 64 64 65 66 66 67 69 70 71 74 76 77 79 83 85 83 80 80 81 81 81 78 73 69 68 70 70 69 70 71 69 69 72 72 71 71 70 68 66 65
70 71 70 69 70 70 69 69 68 68 67 67 67 67 66 65 64 62 61 60 60 60 61 61 62 63 62 63 65 63 59 59 63 64 64 64 65 67 68 68 68 67 66 64 64 64 65 66 67 67 68 70 71 73 75 76 77 82 86 87 84 82 83 83 82 82 79 75 73 73 73 72 71 73 74 73 74 76 73 71 70 68 65 63 63
72 73 72 72 72 72 71 70 70 69 68 68 68 68 67 66 65 64 62 61 60 61 63 63 64 65 64 63 62 59 59 63 66 65 66 66 65 66 67 67 66 64 62 62 64 65 67 68 69 70 71 73 73 75 76 78 82 87 88 86 85 85 86 86 84 81 77 75 75 75 75 75 75 76 77 78 78 77 73 70 68 65 62 60 60
74 75 75 74 74 74 73 72 71 70 69 69 69 68 67 67 66 65 64 63 62 62 64 65 65 66 66 65 65 63 62 64 64 64 66 66 64 65 66 64 60 59 60 62 65 67 69 72 73 73 75 77 78 80 82 85 90 91 89 88 88 89 88 88 84 78 75 75 76 76 76 78 79 79 80 80 79 75 71 68 66 63 60 58 57
75 76 77 77 77 76 75 74 73 72 71 70 69 68 68 67 66 66 66 65 64 64 65 67 67 66 67 68 67 62 59 62 66 66 66 64 63 63 60 57 57 58 60 64 69 71 74 75 76 77 81 84 86 87 90 93 94 93 91 91 91 90 89 87 82 77 76 77 78 79 80 82 83 83 83 81 77 72 67 65 62 60 58 57 55
76 77 78 78 79 79 78 76 75 74 72 71 70 69 69 68 68 67 67 66 66 65 66 68 69 68 69 68 64 60 61 67 70 68 65 65 64 59 52 50 56 61 64 68 72 75 77 78 78 82 87 89 90 92 94 96 95 93 93 94 93 92 91 86 80 77 77 78 78 80 83 84 84 84 83 80 76 70 65 62 59 56 55 54 52
77 78 78 79 80 81 80 78 76 74 73 72 71 70 70 69 68 68 68 68 68 68 67 69 70 71 71 68 65 65 69 71 70 68 69 70 67 58 50 50 55 60 65 70 73 76 79 81 82 86 89 90 91 94 96 96 94 94 95 95 94 92 90 85 80 79 79 79 80 82 84 84 84 83 80 77 74 69 64 60 57 55 53 51 48
78 78 79 79 80 81 80 79 77 75 74 72 71 71 70 69 69 69 69 69 69 70 69 69 71 73 72 70 69 70 70 69 69 70 72 71 65 58 55 55 57 59 64 71 77 80 82 84 85 87 88 91 95 97 96 95 94 96 96 95 94 92 88 83 81 81 81 82 83 84 85 84 83 80 76 73 70 65 61 57 54 52 51 47 44
78 78 78 78 79 80 80 78 77 76 74 72 71 71 70 70 69 70 71 71 71 71 71 70 72 73 72 71 72 71 69 68 69 70 68 65 61 58 56 56 58 61 66 73 77 80 83 85 86 87 90 94 96 95 93 94 95 97 96 95 93 89 85 83 83 83 84 85 85 86 86 84 81 77 74 70 65 61 57 53 51 48 47 44 41
77 77 75 75 77 79 79 78 77 75 73 72 71 71 71 71 71 72 72 72 73 73 72 72 72 73 72 72 73 72 69 68 68 66 62 58 58 58 56 55 57 62 67 72 76 82 85 85 85 89 93 95 94 92 93 94 95 96 95 93 90 86 84 84 84 85 86 86 87 87 85 83 79 74 70 66 61 57 53 50 48 45 42 41 39
76 76 76 75 76 79 79 77 76 75 74 73 72 72 72 73 73 73 74 74 74 74 74 73 72 72 72 73 73 70 68 68 67 62 55 53 55 55 54 56 60 65 71 77 81 84 86 87 90 95 96 94 92 92 94 94 94 94 93 90 87 84 84 85 86 87 88 88 88 87 84 80 75 70 65 61 57 54 51 48 45 43 39 38 37
76 76 77 78 78 78 77 76 76 75 75 74 74 74 74 75 75 75 76 76 76 76 75 74 73 71 69 69 69 68 68 69 65 56 50 50 54 56 58 63 69 75 79 82 83 85 89 94 97 97 95 92 92 93 93 93 93 92 90 87 85 85 85 86 87 89 89 89 88 85 81 76 70 65 60 56 53 51 48 45 43 41 37 36 35
73 74 77 78 77 76 75 76 76 76 75 75 76 76 76 77 77 77 77 77 77 77 76 75 74 70 65 64 65 68 70 67 57 50 51 54 58 62 67 73 79 82 83 84 87 92 97 98 97 95 92 92 92 92 92 92 91 89 87 85 85 86 86 88 89 90 91 89 87 82 77 71 66 60 55 52 50 47 45 43 41 39 35 34 33
72 74 76 76 75 75 75 75 75 75 75 76 77 78 78 78 78 78 78 78 78 78 77 77 76 72 67 67 68 70 70 62 54 53 58 61 64 70 76 81 84 85 86 90 95 98 97 96 95 93 92 91 91 91 91 90 87 86 85 86 86 87 88 89 91 91 90 88 83 78 72 67 61 56 52 49 47 44 42 40 39 37 34 31 30
74 75 75 75 75 75 75 75 75 76 76 78 79 79 79 79 79 79 80 79 79 78 78 79 79 76 75 74 72 70 64 56 53 57 63 66 71 77 83 86 89 91 94 97 97 95 93 93 94 93 91 90 91 90 88 86 84 85 86 87 87 88 90 91 91 90 87 83 78 73 67 62 57 52 49 47 44 41 39 38 37 35 32 30 28
75 75 75 75 76 76 77 77 77 78 78 79 80 80 79 79 80 81 81 80 79 79 79 80 79 79 80 79 75 69 64 61 61 64 69 73 79 85 89 92 94 95 96 95 93 92 92 92 91 91 91 90 89 87 85 84 84 85 87 88 89 90 91 91 90 87 83 78 73 67 63 58 54 49 46 44 41 38 36 36 35 33 31 28 26
77 76 76 76 77 78 79 79 79 79 79 80 80 80 80 81 81 82 82 81 80 79 79 80 80 80 80 78 74 69 67 69 72 74 78 83 87 89 91 93 93 92 92 92 92 92 92 90 89 89 88 87 85 85 84 85 85 85 87 89 91 91 91 90 87 82 77 72 68 63 58 55 51 47 44 42 39 36 34 34 33 31 28 26 24
77 76 77 78 79 79 79 80 80 79 79 80 80 80 81 81 82 81 81 80 80 80 79 79 79 77 73 68 66 65 67 71 77 80 83 86 87 88 89 89 89 89 90 91 91 92 91 90 88 86 84 84 84 84 84 85 86 86 87 89 91 90 89 86 82 77 71 67 62 58 54 51 48 44 42 39 36 33 32 31 31 29 27 24 22
77 77 78 79 79 80 79 80 80 79 79 79 80 80 81 81 80 80 80 80 80 79 78 77 76 74 71 67 68 72 76 79 82 83 83 84 85 86 86 86 87 88 88 89 90 90 88 87 85 84 84 84 84 84 85 86 87 88 89 90 89 87 84 80 76 71 66 62 58 54 50 47 44 41 39 36 33 31 30 29 28 27 25 23 21
75 76 77 78 79 79 79 79 79 79 78 78 78 78 78 79 79 79 80 80 79 78 77 77 76 76 75 75 77 79 81 82 82 81 82 83 84 84 85 85 86 86 86 86 87 86 85 84 83 84 84 84 85 86 86 87 89 90 89 87 85 82 77 73 69 65 61 57 54 50 46 43 41 38 36 33 30 28 27 27 26 25 23 22 21
73 74 75 76 77 77 77 77 77 76 76 76 76 76 77 79 80 80 80 79 77 76 76 77 77 78 79 79 80 80 80 79 80 80 81 82 83 84 85 84 83 83 83 83 84 84 84 84 84 85 85 85 86 87 87 88 89 89 87 83 79 75 70 66 63 60 56 52 49 46 42 39 37 36 33 30 28 26 25 25 25 23 22 21 21
72 73 74 74 75 75 75 75 74 75 75 76 77 79 80 81 81 79 77 76 76 76 77 78 79 79 80 79 79 78 78 79 79 80 81 82 83 83 83 82 81 81 81 82 83 84 85 84 84 85 86 87 88 88 89 88 87 85 81 77 72 68 65 61 58 55 52 48 45 42 40 37 35 33 31 28 26 24 24 24 23 22 22 21 22
72 72 72 73 74 74 74 74 75 76 77 78 79 80 81 80 78 76 75 75 76 77 79 80 80 80 80 79 79 79 79 79 80 80 80 81 81 82 82 82 81 81 81 81 83 85 85 85 85 86 87 89 89 89 88 86 82 78 74 70 66 63 60 56 53 51 48 44 42 40 38 35 33 31 30 27 25 23 23 22 22 22 22 22 23
70 71 71 72 74 74 74 75 76 77 78 78 79 79 78 77 76 76 76 76 77 80 82 83 82 81 80 80 80 79 79 79 79 79 80 81 81 82 82 82 82 82 81 81 83 84 85 86 87 88 88 89 89 87 83 80 76 72 68 64 61 58 55 52 49 47 44 42 40 38 35 33 31 30 28 27 25 23 22 22 22 22 22 23 25
70 70 71 72 74 76 76 77 78 78 78 77 77 77 76 77 77 77 77 77 79 82 84 83 82 81 80 80 80 80 79 79 79 80 81 81 82 82 82 83 83 83 83 82 83 84 85 86 88 89 88 86 84 80 76 73 69 65 62 59 56 53 50 47 46 44 42 40 38 35 33 31 30 28 28 27 25 23 21 22 22 22 23 25 27
71 71 73 74 76 78 79 79 78 77 76 75 75 75 76 77 77 77 78 79 83 84 83 82 81 81 80 81 81 80 80 80 80 81 82 83 83 83 83 83 83 84 84 85 85 85 86 86 86 86 84 80 77 73 69 66 63 60 57 54 51 48 46 45 43 41 39 38 36 34 32 30 28 27 27 26 24 22 21 21 22 23 24 26 29
73 74 75 77 79 80 80 78 76 74 74 74 74 75 76 77 78 79 80 82 84 84 81 80 81 81 80 81 82 82 82 82 81 82 83 84 84 84 85 85 85 85 85 86 86 86 85 84 82 80 77 73 69 66 63 61 57 55 52 49 46 44 43 42 41 39 38 37 35 32 30 29 28 27 26 25 24 22 21 22 23 24 25 29 31
77 78 79 79 80 80 78 76 74 73 73 74 75 76 77 78 80 81 82 83 84 83 81 80 80 81 81 82 83 84 84 84 83 83 84 85 85 85 86 87 87 86 85 85 85 83 81 78 76 73 70 67 63 61 59 56 53 50 47 45 44 42 41 40 39 37 37 35 33 31 29 27 27 26 25 24 23 22 21 22 23 25 27 30 33
81 80 80 80 80 79 78 76 75 74 74 75 76 77 79 80 81 82 83 84 84 83 82 81 81 82 83 84 84 85 86 86 85 85 85 86 86 86 86 86 86 85 83 82 80 77 74 71 69 66 63 61 58 56 54 52 49 46 44 43 42 41 39 38 37 36 35 34 32 30 28 27 26 25 24 23 22 22 21 22 24 25 28 32 35
80 81 81 82 81 80 79 77 76 76 77 78 79 80 81 82 83 84 85 84 82 81 82 82 82 83 85 86 86 87 87 87 86 86 86 86 86 86 85 85 83 81 79 75 72 70 67 64 62 60 58 55 53 51 49 48 46 44 43 41 41 39 38 37 36 35 34 33 31 29 28 26 25 25 24 22 21 21 21 22 24 26 28 33 36
82 83 83 83 82 80 79 78 79 80 81 81 83 84 85 84 84 85 85 83 81 81 83 84 84 85 87 88 89 89 89 88 87 87 86 86 85 84 83 81 79 76 72 69 65 62 59 57 56 54 53 50 48 46 45 44 43 43 42 41 39 38 36 35 35 34 33 32 31 29 27 26 25 24 23 22 21 20 21 22 24 26 29 33 38
84 84 83 82 81 80 80 81 83 84 84 85 87 88 87 85 85 84 83 82 83 84 86 87 87 88 89 90 90 89 89 88 87 86 85 84 83 81 78 76 73 69 65 61 58 55 53 52 51 49 47 45 43 42 42 42 42 41 41 39 38 36 35 34 33 32 32 31 30 29 27 25 24 24 23 22 21 20 20 22 24 26 29 34 39
85 85 84 83 82 83 83 85 86 87 88 88 89 88 88 87 86 85 84 84 86 87 88 89 89 90 91 91 91 89 88 87 86 85 83 81 79 76 73 70 66 62 58 55 53 50 48 47 45 44 43 42 41 40 40 40 40 40 39 38 37 35 33 32 31 31 30 30 29 28 27 25 24 24 23 22 21 19 19 21 23 26 29 34 39
86 86 85 84 85 85 86 87 89 90 90 90 89 89 89 89 88 87 86 87 88 89 90 91 92 92 92 91 90 89 87 86 84 82 80 77 74 71 67 63 59 56 52 50 47 45 43 42 42 41 41 40 39 39 39 38 38 38 37 36 35 34 32 31 30 29 29 28 28 27 26 25 24 24 23 21 20 19 19 20 22 25 28 33 39
84 84 85 85 86 88 89 91 93 93 93 93 92 91 90 90 90 89 88 89 90 92 93 94 94 93 92 90 89 88 86 84 82 79 75 72 68 64 60 56 53 50 47 44 42 41 40 40 40 39 39 38 38 37 37 36 36 36 36 35 34 32 31 30 29 28 27 27 27 26 26 24 24 23 22 21 20 19 19 20 21 24 27 31 37
84 86 88 89 91 93 94 96 96 96 95 95 94 93 92 92 91 90 90 90 92 94 95 95 94 92 90 88 87 86 83 81 77 73 69 65 61 58 54 51 47 44 42 40 40 39 39 39 39 38 37 37 36 35 35 34 34 35 35 35 33 31 30 28 27 27 26 26 26 25 25 24 23 22 21 20 20 19 19 19 20 23 26 30 35
91 92 94 95 97 98 98 98 98 97 97 96 94 93 94 94 92 91 92 93 95 96 96 95 92 90 88 87 85 82 78 75 70 66 61 58 55 52 49 46 43 41 40 39 39 38 38 37 37 37 36 35 34 33 33 33 33 33 33 33 33 31 29 28 27 26 26 25 25 25 24 23 22 21 20 20 19 19 18 19 19 21 25 28 33
97 98 99 99 100 100 99 99 99 98 97 96 95 95 95 94 93 93 94 95 96 96 95 92 90 88 86 83 80 76 72 67 62 58 54 52 49 47 45 43 42 40 39 38 37 37 37 36 36 36 35 34 33 32 32 32 32 32 31 31 31 30 29 28 27 26 25 24 24 24 24 23 22 21 20 20 19 18 18 18 19 20 23 26 30
Wind_Direction
299 299 299 299 300 302 306 308 309 308 307 306 306 308 310 311 313 314 314 315 315 316 316 314 314 314 313 313 312 311 311 310 309 310 312 312 310 308 308 306 307 306 302 299 301 303 304 307 309 309 308 306 305 304 304 305 306 307 309 312 312 309 306 306 307 308 309 309 308 308 308 308 308 307 307 306 305 305 304 305 304 297 287 277 267
297 297 297 298 300 303 305 305 305 305 304 304 306 307 309 310 311 312 313 314 314 314 314 314 314 314 313 313 311 310 309 309 308 309 309 309 307 306 305 303 303 303 300 299 300 301 303 305 306 306 305 304 303 303 303 304 305 306 309 310 310 310 310 310 309 307 306 307 307 307 307 307 306 306 306 305 304 304 304 303 301 293 284 278 269
294 295 296 298 301 302 303 303 303 303 303 304 306 307 307 308 310 311 312 312 313 313 314 313 313 313 313 312 311 309 308 308 308 308 309 309 307 306 304 302 301 299 298 298 299 301 302 303 303 302 302 302 302 302 303 303 304 306 308 309 310 310 309 308 307 307 307 308 308 307 306 305 305 305 304 304 304 304 303 302 297 288 280 277 271
291 293 295 297 299 300 300 300 301 301 302 304 305 305 306 307 309 310 311 312 312 313 313 312 311 310 311 310 310 309 309 309 309 310 311 311 310 308 305 304 302 298 297 298 300 301 301 301 301 300 300 300 300 301 302 303 305 306 308 309 309 307 306 307 309 310 310 309 308 307 306 304 304 303 303 303 303 303 303 300 294 286 281 277 272
290 292 294 295 296 297 298 299 299 300 301 303 304 304 306 307 309 310 311 312 312 312 311 310 310 310 310 310 310 310 311 312 312 312 312 312 311 310 308 306 304 301 300 302 303 302 301 299 298 298 298 298 299 300 301 303 304 306 307 306 305 305 306 308 310 311 311 310 308 307 305 304 302 301 302 303 303 303 302 298 292 287 285 281 275
290 291 293 294 295 296 297 297 298 299 301 301 303 304 306 307 309 310 311 311 311 311 310 309 309 309 310 311 311 311 312 312 312 312 311 311 311 310 308 306 305 304 305 306 304 301 297 296 295 295 296 297 297 299 300 302 303 304 305 304 305 306 307 309 310 311 311 310 308 306 305 303 301 301 301 302 303 302 300 297 293 290 289 285 281
289 290 292 293 294 295 296 297 298 299 300 301 302 304 305 307 309 310 310 310 310 309 309 308 308 308 310 311 311 312 312 312 311 311 310 310 311 309 307 306 306 305 304 302 299 296 293 293 293 294 295 296 298 300 301 302 304 304 304 306 307 308 309 310 310 310 310 309 307 305 303 302 301 301 302 303 303 302 299 298 296 294 292 289 285
287 289 290 292 294 295 296 297 298 299 300 301 303 304 305 306 307 308 309 309 308 307 307 307 307 308 309 311 311 313 314 313 312 311 310 310 310 307 305 305 304 302 300 299 297 295 294 293 294 295 296 297 299 301 302 303 304 304 305 307 309 309 309 309 309 309 309 308 306 304 302 301 301 301 302 304 303 301 300 300 299 297 294 291 287
286 288 290 291 293 294 295 296 298 299 301 302 302 303 304 304 306 307 307 307 306 306 306 306 306 308 309 310 312 315 314 312 311 312 311 310 309 304 303 304 304 303 302 301 299 297 296 296 297 298 299 300 301 301 302 302 303 305 307 308 308 308 309 309 310 310 310 309 306 304 303 301 300 301 303 304 302 301 301 300 299 297 295 292 289
286 287 289 290 291 293 294 295 297 298 300 301 301 302 303 304 305 306 306 306 305 305 304 305 306 307 309 311 313 315 313 309 309 312 312 311 307 304 303 305 306 305 304 303 300 299 298 298 299 299 300 301 301 301 302 303 304 306 308 308 309 309 310 311 312 312 312 311 308 305 303 301 301 303 305 304 302 301 300 299 298 297 294 291 289
285 287 288 290 291 292 293 294 294 295 297 298 300 301 303 304 305 305 305 305 305 304 304 304 305 307 309 311 312 313 312 310 311 313 313 310 306 304 304 305 304 304 304 303 301 300 299 299 299 300 300 300 301 302 302 303 305 308 308 309 310 311 312 313 312 312 312 311 308 306 304 303 305 306 305 304 303 302 300 299 298 296 294 291 288
285 286 287 289 290 291 292 293 293 294 295 297 298 300 302 303 304 305 304 304 304 304 303 304 305 306 308 310 312 313 313 311 310 310 310 307 303 302 303 303 302 303 303 301 300 299 298 299 299 300 300 300 300 301 301 303 306 308 309 311 312 313 313 312 312 312 312 311 310 306 305 306 308 307 305 304 303 302 301 301 299 296 294 291 288
284 285 287 288 289 290 291 291 292 294 295 296 297 299 300 302 303 303 303 304 303 303 303 304 305 306 308 310 312 312 311 311 309 306 306 305 302 302 302 302 302 302 301 300 299 298 298 299 301 301 300 300 300 300 300 303 306 307 310 312 313 311 309 310 313 314 313 312 311 308 307 309 308 306 306 304 303 303 303 302 299 297 294 291 289
282 283 284 286 287 287 288 289 291 292 294 296 297 298 300 301 301 302 302 302 302 302 303 304 304 307 309 311 312 311 309 309 308 305 305 305 303 302 302 302 303 302 301 299 298 298 299 300 301 301 301 301 301 300 300 302 305 307 310 311 309 308 309 311 314 316 314 312 311 310 309 309 307 307 307 306 305 305 304 302 299 296 294 292 290
280 281 283 284 285 286 287 289 290 292 294 296 298 299 300 300 301 301 301 302 302 302 303 304 305 307 309 310 312 309 306 306 306 305 304 305 305 304 304 304 304 303 300 299 297 297 299 301 301 301 302 302 302 302 302 303 305 307 309 310 311 312 314 314 315 315 313 312 312 311 310 309 308 308 308 307 306 305 303 301 299 296 294 292 289
280 281 282 283 285 286 288 289 291 293 295 297 298 299 300 300 301 301 301 302 302 302 304 305 306 308 308 309 310 307 303 303 304 303 305 307 307 306 305 305 304 301 298 296 295 296 300 302 302 302 302 303 303 303 303 303 305 308 310 312 314 316 315 315 315 314 312 311 311 311 309 309 309 309 309 308 306 304 303 302 298 296 294 291 288
281 282 283 285 286 287 288 290 292 294 295 296 297 298 299 300 300 301 301 302 303 304 305 306 307 308 308 308 309 307 305 303 302 302 306 308 307 306 306 305 301 298 296 294 294 297 301 302 301 301 302 303 303 302 303 304 308 311 313 315 316 315 315 315 315 313 311 311 311 310 309 309 310 310 309 307 306 304 303 301 298 296 293 290 287
281 283 285 286 287 288 290 291 292 294 295 296 297 298 298 299 299 300 301 302 303 305 305 305 306 306 306 307 308 307 303 300 301 303 306 307 306 306 306 303 299 296 294 293 294 297 299 300 299 299 301 303 303 304 306 309 311 313 314 314 315 314 314 314 313 311 311 311 311 311 311 311 311 310 308 307 305 304 302 300 297 295 293 290 287
282 284 286 287 289 289 290 292 293 294 295 296 297 298 298 299 299 300 301 302 303 304 304 305 304 305 306 306 306 303 300 300 303 306 306 306 305 303 301 298 294 292 292 292 293 296 297 297 297 298 301 304 306 307 309 310 311 312 313 313 313 313 313 312 311 310 310 311 311 311 311 311 310 309 308 307 305 304 302 300 297 295 292 290 287
282 284 286 287 288 289 290 291 293 294 295 296 297 297 298 299 300 301 301 302 303 303 303 304 304 305 307 307 304 304 304 305 307 307 305 305 303 298 291 286 283 285 289 290 292 293 294 295 296 299 302 304 305 306 308 309 310 311 311 312 312 312 311 311 310 309 310 310 310 310 311 310 309 308 307 306 305 305 303 300 298 295 291 289 287
283 284 286 287 287 288 289 291 292 293 294 295 296 297 298 299 300 301 301 301 302 302 303 304 305 306 308 308 307 307 307 307 307 306 304 302 299 293 287 281 278 280 282 283 286 289 291 294 297 300 302 304 305 306 308 309 309 310 310 311 311 311 310 310 310 310 311 311 311 311 311 310 309 308 307 305 304 303 301 298 295 292 290 288 285
282 284 285 286 286 287 289 290 291 292 293 294 295 296 297 298 299 299 300 300 301 302 303 304 305 306 308 308 308 308 307 306 306 306 304 300 295 292 288 282 278 277 277 279 284 288 292 295 298 300 302 304 305 306 307 307 307 308 309 310 310 310 310 310 310 311 311 311 312 311 311 310 309 308 307 305 303 301 299 296 293 290 288 286 284
281 282 283 284 284 286 288 289 291 291 292 293 294 295 296 297 297 298 299 300 300 302 303 304 305 307 308 307 306 307 307 306 305 305 303 296 292 291 288 280 277 278 280 284 289 292 294 295 297 299 301 303 304 304 305 305 306 307 308 309 309 309 309 310 310 311 311 311 312 311 311 310 309 308 306 305 303 301 298 295 293 290 287 285 282
279 280 281 281 282 285 287 289 290 291 291 292 294 294 295 295 296 297 298 299 300 301 302 303 305 307 305 304 305 307 305 304 304 303 299 291 288 286 283 279 279 282 286 290 292 293 294 295 296 298 300 302 303 304 305 305 306 307 308 308 308 308 309 310 310 311 311 311 311 311 311 310 309 308 306 304 302 300 298 295 293 290 287 283 280
279 279 279 280 282 284 287 288 289 290 291 292 293 293 294 294 295 296 297 298 299 301 302 303 305 305 303 303 305 304 302 302 302 297 291 287 285 284 281 280 283 286 289 292 293 294 295 296 298 299 301 303 304 304 305 306 307 307 307 307 308 309 310 310 311 311 311 311 311 311 310 309 308 307 305 303 301 299 297 295 292 289 286 283 279
277 278 279 281 283 285 286 287 288 289 290 291 291 292 293 294 294 296 297 298 299 300 301 301 303 303 302 301 300 299 299 299 296 291 288 287 286 284 282 282 284 287 290 292 294 296 297 298 299 301 303 304 304 305 305 306 307 307 307 307 308 310 310 310 311 311 311 311 310 310 310 309 308 307 305 302 300 298 296 293 290 287 285 281 277
275 277 279 282 283 284 285 286 287 288 288 289 290 291 292 293 294 295 296 297 298 299 299 300 300 300 298 295 294 297 298 294 288 286 287 285 283 283 283 284 287 289 290 292 295 297 298 299 300 302 303 304 304 305 306 306 306 306 307 308 309 310 310 311 311 310 310 310 310 310 309 308 307 306 304 301 299 297 295 291 287 285 283 279 275
275 277 279 281 282 282 283 284 285 286 287 288 289 291 292 293 294 294 295 296 297 297 298 298 298 298 297 295 296 299 297 288 281 281 280 278 279 282 284 286 289 290 291 293 296 297 298 300 302 303 303 304 304 305 305 305 305 306 308 309 310 310 310 310 310 310 310 309 309 309 308 307 306 305 302 299 298 296 293 289 285 283 281 277 272
275 277 278 279 280 281 282 283 284 285 287 288 289 290 291 292 292 293 294 295 295 296 296 296 296 296 296 295 295 293 288 281 278 277 276 277 280 283 286 288 290 291 293 295 296 298 300 301 302 303 304 304 304 304 304 305 306 308 309 309 310 310 310 310 309 309 309 309 309 308 308 307 305 303 301 299 297 295 291 287 284 281 278 274 268
274 276 277 278 279 280 281 282 284 285 286 287 288 289 290 291 292 293 293 294 294 295 295 295 295 295 295 293 291 287 283 280 280 281 281 282 284 286 288 290 292 293 294 296 298 299 300 301 302 302 303 303 303 303 304 306 307 308 309 309 309 309 309 308 308 308 309 308 308 308 307 306 305 302 300 298 296 293 289 285 281 278 274 270 264
274 275 276 277 278 279 281 282 284 285 285 286 287 288 289 290 291 292 292 293 294 294 294 293 293 294 293 291 288 285 284 285 286 286 286 286 287 289 290 292 293 295 296 298 299 300 300 301 302 302 302 302 303 304 305 307 307 308 309 309 309 308 308 308 308 308 308 307 307 307 306 305 303 301 299 297 295 291 286 282 278 274 270 265 258
274 275 276 277 278 279 280 282 283 284 284 285 286 287 288 289 290 290 291 292 292 292 291 290 291 291 289 286 284 285 286 287 289 289 289 289 290 291 292 293 295 296 297 298 298 299 300 301 301 302 302 303 304 305 307 307 308 308 308 308 308 307 307 307 307 307 307 307 306 306 305 303 301 299 297 295 292 288 283 278 274 270 265 259 251
274 275 276 276 277 278 280 281 282 283 284 284 285 286 287 288 289 290 290 291 290 290 289 289 290 290 289 288 287 287 288 289 289 290 291 292 293 293 294 295 296 297 297 298 298 299 300 301 301 302 303 304 305 306 307 307 308 308 308 307 307 307 307 307 306 306 306 306 305 304 303 301 299 297 296 293 290 285 279 274 269 265 259 252 244
274 275 276 276 277 278 279 280 281 282 283 283 284 286 287 288 289 290 290 290 289 289 289 289 290 290 290 290 290 290 290 291 292 292 293 294 295 295 296 296 297 297 298 298 299 299 300 302 303 304 304 305 306 307 307 307 307 307 307 306 306 306 306 306 306 305 305 305 304 303 302 300 299 296 294 291 288 283 276 269 265 260 253 245 237
273 274 275 276 277 278 279 280 281 281 283 284 286 288 289 290 290 291 290 290 291 291 292 292 292 292 292 292 292 292 292 293 294 295 295 296 296 296 296 297 298 298 299 299 300 301 301 303 304 304 305 306 306 307 307 307 306 306 306 306 306 306 306 306 306 305 305 305 304 303 302 300 298 295 293 290 286 280 273 266 260 253 246 237 229
272 274 275 276 277 278 279 281 282 284 286 288 289 290 291 291 291 291 291 291 292 294 295 295 295 295 295 294 294 294 295 295 296 297 297 297 297 297 298 298 299 299 300 301 301 302 303 304 304 305 306 306 306 306 306 306 305 305 305 305 305 305 305 306 305 305 305 305 304 302 300 298 296 293 292 289 285 278 271 263 255 248 240 231 223
274 275 277 278 279 281 282 284 286 288 290 290 291 291 291 291 292 291 290 290 292 295 297 298 297 297 297 297 298 298 298 299 299 299 298 298 298 298 299 299 299 300 300 301 301 302 304 305 305 305 305 305 305 305 305 305 305 305 305 305 305 305 305 306 306 305 305 304 303 301 298 296 294 292 291 288 284 277 268 259 251 243 234 225 217
277 278 279 281 282 284 286 288 289 290 291 291 291 292 292 292 292 291 289 289 292 296 298 299 299 299 300 300 300 300 300 300 299 299 299 298 298 299 299 300 300 301 301 302 303 303 304 304 304 304 304 303 304 304 304 304 304 304 304 304 304 305 306 306 305 304 304 303 300 298 296 294 292 291 289 287 283 276 266 256 247 239 229 220 214
279 280 281 282 284 286 287 289 290 290 291 292 292 292 291 291 291 291 290 291 294 297 299 300 300 301 302 301 300 300 300 299 299 299 299 299 300 300 300 301 301 302 303 303 304 304 303 303 303 303 302 303 303 304 304 304 303 303 303 303 304 305 306 305 304 303 302 300 298 296 294 291 290 288 287 285 282 274 264 253 243 234 225 216 211
278 280 281 283 284 286 287 289 290 292 293 293 293 292 291 291 291 291 291 293 297 299 300 300 301 301 300 300 299 299 299 299 300 300 300 301 301 301 302 302 302 303 303 303 303 303 303 303 302 302 302 303 303 303 303 303 302 302 303 304 305 306 305 304 303 301 299 297 296 294 292 290 288 286 285 283 280 273 262 250 241 231 222 214 209
278 279 281 282 284 285 287 289 291 292 293 293 293 293 292 292 292 292 293 296 299 299 299 299 300 300 299 299 299 299 300 300 301 301 301 302 302 302 302 302 302 303 303 302 302 302 302 302 302 302 302 303 303 303 302 302 303 303 304 305 305 305 304 302 301 299 297 296 294 293 291 288 287 285 285 283 279 272 261 249 239 230 220 212 207
279 280 282 283 284 286 289 291 292 292 292 293 293 294 293 293 294 295 296 298 299 298 298 299 299 299 299 299 300 300 301 301 302 302 302 302 302 302 302 302 302 302 302 301 302 302 302 302 302 302 302 303 303 303 303 303 304 305 305 305 304 304 302 300 299 297 295 294 293 292 290 288 286 286 285 283 279 271 260 248 238 229 220 212 206
280 282 283 284 286 288 290 291 291 291 292 293 295 296 296 296 296 297 298 299 298 297 297 298 299 299 300 300 301 302 302 302 303 303 302 302 302 301 301 301 301 301 301 301 302 302 302 302 302 302 302 302 303 303 304 304 305 305 304 304 303 302 301 299 298 296 295 294 293 292 290 288 287 286 285 283 279 270 259 249 238 229 220 212 206
280 282 283 285 286 288 289 290 291 292 293 295 297 298 297 297 298 299 298 298 297 297 298 299 300 301 301 302 303 303 303 303 303 302 302 301 301 301 301 300 300 301 301 302 301 301 301 301 302 302 302 303 304 304 304 304 304 303 302 302 301 300 299 298 297 296 295 293 292 291 289 287 286 285 283 282 279 270 259 249 239 229 221 213 207
281 283 284 285 286 288 289 291 292 293 294 296 297 298 297 298 299 299 297 296 296 297 298 300 301 301 302 302 303 303 302 302 302 302 301 301 301 300 300 300 301 301 301 301 302 302 302 302 302 302 303 304 305 304 304 303 302 301 300 300 300 299 299 298 296 295 293 292 291 290 288 286 285 283 281 280 277 270 260 249 239 230 223 215 208
283 284 285 286 287 289 291 292 293 294 295 297 298 298 298 299 299 298 296 296 296 297 299 300 301 302 302 302 303 303 302 302 302 301 301 301 301 301 301 301 301 301 302 302 303 303 303 302 302 303 303 304 304 304 303 302 301 300 299 299 299 299 299 298 296 294 291 290 289 288 287 285 283 281 279 278 277 270 261 250 240 232 225 217 210
283 284 285 286 288 290 291 292 293 295 296 298 298 298 298 299 299 297 296 296 297 298 299 300 301 302 302 303 303 303 302 302 302 302 302 301 301 301 301 301 302 302 303 303 303 303 302 302 302 303 303 304 305 304 304 302 301 301 300 299 299 298 298 297 295 292 290 288 286 285 284 282 281 279 278 277 277 272 263 253 242 233 226 220 213
283 284 286 287 288 290 291 292 294 296 297 298 298 298 299 299 299 297 296 296 297 298 299 300 301 302 303 303 303 303 302 302 302 302 302 301 301 301 301 301 302 303 303 303 303 302 302 302 302 303 304 305 305 304 304 304 303 302 301 300 299 298 296 295 293 291 288 286 284 283 282 280 279 279 278 277 276 273 266 257 245 235 228 222 216
284 285 286 287 289 290 292 293 295 296 297 298 299 299 299 299 298 297 296 296 297 298 299 300 301 302 302 302 302 302 302 302 301 301 301 301 301 301 301 302 302 302 302 302 301 301 301 301 302 303 303 304 304 305 305 305 305 304 302 301 299 297 295 294 292 290 288 285 283 282 281 280 278 278 277 276 275 273 268 261 250 239 231 224 218
285 286 287 288 289 290 292 294 295 296 297 298 298 298 298 298 296 295 295 295 297 298 299 300 301 301 302 302 302 301 301 301 300 300 300 300 300 300 301 301 301 301 300 300 300 300 300 301 302 302 302 303 304 306 306 306 305 304 303 301 300 298 296 293 291 289 287 285 283 282 282 280 279 277 275 274 273 272 268 263 255 243 234 227 221
285 286 287 288 290 291 293 294 295 296 296 296 296 297 297 296 295 294 294 295 297 298 300 300 301 301 301 301 301 300 300 299 299 299 299 299 299 299 299 299 299 298 298 298 299 300 300 301 301 301 302 303 305 306 307 306 306 305 304 302 301 299 297 294 291 289 287 285 283 281 281 280 278 275 273 272 271 270 269 265 259 250 238 230 224
Height
10950 10948 10947 10945 10944 10944 10943 10943 10942 10940 10938 10936 10934 10933 10931 10930 10929 10927 10924 10921 10918 10916 10914 10911 10909 10907 10904 10902 10900 10897 10896 10894 10891 10888 10885 10883 10880 10878 10876 10874 10873 10871 10866 10860 10857 10855 10852 10850 10848 10845 10842 10839 10836 10834 10832 10830 10828 10825 10823 10820 10818 10815 10812 10809 10804 10799 10796 10794 10792 10788 10786 10786 10783 10781 10780 10778 10775 10772 10768 10765 10763 10761 10759 10757 10757
10944 10943 10941 10941 10941 10940 10940 10938 10937 10936 10933 10932 10930 10929 10927 10926 10925 10923 10920 10916 10914 10912 10909 10907 10904 10902 10900 10897 10895 10892 10890 10888 10886 10883 10880 10878 10875 10873 10871 10869 10867 10865 10861 10856 10853 10850 10847 10845 10843 10840 10837 10834 10831 10829 10827 10825 10823 10820 10817 10814 10812 10810 10806 10802 10799 10794 10789 10785 10783 10780 10777 10775 10773 10771 10770 10768 10766 10764 10760 10757 10755 10753 10751 10750 10749
10939 10937 10936 10936 10937 10936 10935 10934 10933 10931 10929 10928 10927 10924 10923 10922 10921 10918 10915 10912 10909 10907 10904 10902 10899 10897 10895 10893 10890 10888 10885 10883 10881 10878 10876 10873 10870 10868 10865 10863 10862 10859 10855 10852 10849 10846 10843 10840 10837 10834 10831 10829 10826 10823 10821 10819 10817 10814 10811 10808 10805 10802 10799 10796 10792 10788 10783 10777 10773 10772 10769 10765 10762 10760 10758 10758 10757 10755 10752 10748 10746 10745 10744 10742 10742
10933 10933 10932 10932 10932 10932 10930 10929 10928 10926 10925 10924 10922 10919 10918 10917 10916 10914 10910 10906 10904 10902 10899 10897 10895 10893 10891 10889 10886 10883 10881 10878 10876 10873 10871 10868 10865 10862 10859 10857 10855 10853 10850 10847 10845 10841 10838 10835 10832 10829 10826 10823 10820 10817 10815 10812 10810 10807 10804 10801 10798 10795 10791 10788 10785 10781 10776 10769 10763 10761 10760 10757 10753 10749 10747 10746 10746 10744 10743 10740 10738 10736 10735 10735 10734
10927 10928 10928 10928 10928 10927 10926 10925 10923 10922 10921 10920 10917 10914 10912 10911 10910 10908 10906 10901 10898 10896 10894 10891 10889 10888 10886 10884 10881 10878 10875 10873 10870 10868 10865 10862 10859 10856 10854 10851 10849 10847 10844 10841 10838 10835 10832 10829 10826 10823 10821 10817 10814 10811 10808 10806 10803 10800 10797 10794 10790 10787 10783 10780 10777 10774 10769 10763 10756 10751 10749 10748 10744 10739 10737 10736 10735 10733 10732 10731 10729 10728 10726 10726 10725
10921 10922 10923 10923 10923 10922 10921 10919 10918 10917 10917 10915 10912 10909 10907 10905 10903 10902 10900 10897 10893 10890 10888 10886 10884 10882 10880 10879 10876 10873 10870 10867 10865 10862 10859 10856 10853 10850 10847 10845 10843 10840 10837 10834 10832 10829 10826 10823 10820 10817 10814 10810 10807 10804 10801 10798 10795 10792 10789 10785 10782 10778 10775 10772 10768 10765 10761 10756 10750 10744 10739 10737 10734 10731 10728 10726 10725 10723 10721 10721 10720 10719 10717 10715 10714
10916 10916 10917 10917 10917 10916 10915 10913 10912 10912 10911 10909 10907 10904 10901 10900 10898 10896 10894 10892 10888 10885 10882 10880 10878 10876 10874 10872 10870 10867 10864 10862 10859 10856 10853 10849 10846 10843 10841 10838 10836 10834 10831 10829 10827 10824 10821 10818 10814 10811 10807 10803 10799 10796 10792 10789 10786 10783 10780 10777 10773 10769 10766 10763 10760 10757 10753 10749 10743 10738 10732 10727 10723 10721 10719 10717 10715 10713 10711 10710 10709 10707 10706 10704 10702
10911 10911 10911 10912 10911 10910 10909 10907 10906 10905 10905 10904 10902 10899 10896 10894 10893 10891 10889 10886 10883 10880 10877 10874 10872 10870 10868 10866 10864 10861 10858 10855 10853 10850 10847 10843 10840 10837 10834 10832 10830 10828 10826 10824 10822 10819 10815 10812 10808 10804 10800 10796 10792 10789 10785 10781 10778 10775 10772 10769 10765 10761 10759 10756 10752 10747 10744 10740 10735 10730 10725 10720 10715 10712 10710 10708 10705 10702 10701 10699 10698 10696 10694 10692 10690
10906 10905 10905 10906 10906 10905 10903 10902 10900 10898 10897 10897 10896 10894 10892 10890 10888 10886 10884 10881 10878 10875 10872 10869 10867 10865 10863 10860 10858 10855 10852 10849 10847 10844 10841 10837 10834 10831 10828 10826 10824 10822 10819 10817 10814 10812 10808 10805 10801 10797 10792 10789 10785 10782 10778 10774 10771 10767 10764 10761 10757 10754 10750 10747 10743 10738 10734 10729 10724 10720 10716 10711 10707 10705 10702 10699 10696 10694 10691 10689 10687 10685 10682 10680 10678
10900 10900 10899 10899 10900 10899 10898 10897 10896 10894 10892 10890 10889 10888 10887 10885 10883 10881 10878 10876 10874 10870 10867 10865 10862 10859 10856 10854 10852 10850 10847 10843 10841 10839 10835 10831 10828 10825 10822 10819 10817 10814 10812 10809 10806 10804 10800 10797 10793 10789 10785 10782 10778 10775 10771 10767 10763 10760 10756 10752 10748 10745 10740 10736 10733 10728 10724 10719 10714 10710 10706 10702 10698 10696 10693 10690 10688 10685 10682 10679 10676 10673 10670 10669 10666
10895 10894 10893 10893 10893 10892 10892 10891 10890 10890 10889 10886 10884 10882 10880 10879 10877 10875 10872 10870 10868 10865 10862 10860 10858 10854 10851 10848 10846 10844 10841 10838 10835 10833 10830 10826 10822 10819 10816 10812 10810 10807 10805 10802 10798 10795 10792 10789 10786 10782 10778 10775 10772 10768 10764 10760 10757 10753 10748 10744 10740 10735 10730 10726 10723 10719 10715 10710 10704 10699 10695 10693 10689 10685 10682 10680 10678 10675 10672 10668 10664 10660 10657 10655 10653
10889 10888 10888 10887 10886 10886 10885 10884 10883 10883 10883 10882 10880 10878 10876 10874 10872 10869 10867 10865 10862 10859 10856 10855 10853 10850 10846 10843 10840 10837 10834 10831 10829 10827 10824 10821 10817 10813 10809 10806 10803 10800 10798 10795 10791 10788 10784 10781 10778 10775 10771 10768 10765 10761 10757 10753 10750 10746 10741 10736 10731 10726 10721 10716 10713 10709 10705 10700 10695 10689 10686 10683 10680 10676 10672 10669 10667 10664 10661 10656 10651 10647 10643 10640 10640
10883 10882 10882 10881 10880 10879 10879 10878 10877 10876 10876 10876 10875 10873 10871 10869 10867 10864 10862 10860 10857 10854 10851 10849 10847 10845 10842 10838 10834 10830 10827 10824 10822 10820 10819 10815 10811 10807 10803 10799 10796 10793 10790 10787 10784 10780 10777 10773 10770 10767 10764 10761 10758 10754 10749 10745 10742 10738 10733 10728 10723 10718 10712 10708 10704 10699 10694 10690 10686 10681 10677 10674 10671 10666 10661 10658 10656 10653 10649 10645 10639 10634 10630 10626 10626
10877 10876 10877 10876 10875 10874 10873 10872 10872 10871 10870 10869 10868 10867 10865 10863 10861 10859 10857 10855 10852 10848 10846 10844 10841 10839 10836 10832 10827 10823 10820 10817 10814 10813 10812 10809 10804 10800 10795 10791 10788 10785 10781 10778 10775 10772 10769 10766 10763 10759 10756 10752 10749 10746 10741 10738 10735 10732 10726 10720 10715 10711 10704 10699 10695 10689 10683 10679 10677 10672 10668 10664 10660 10656 10650 10647 10645 10641 10637 10633 10627 10622 10618 10615 10612
10871 10870 10871 10870 10869 10868 10867 10867 10866 10865 10865 10863 10861 10859 10857 10855 10853 10852 10851 10849 10846 10842 10840 10838 10835 10832 10830 10826 10820 10815 10813 10811 10808 10806 10804 10802 10798 10792 10787 10783 10780 10777 10773 10771 10768 10764 10762 10759 10755 10751 10748 10744 10741 10738 10733 10730 10728 10725 10720 10713 10707 10702 10695 10689 10686 10680 10672 10668 10666 10662 10658 10654 10650 10646 10641 10637 10633 10628 10626 10622 10615 10610 10608 10604 10600
10865 10863 10864 10863 10862 10861 10861 10861 10860 10860 10859 10857 10855 10852 10850 10848 10845 10844 10843 10842 10840 10836 10832 10830 10828 10825 10822 10820 10816 10812 10809 10806 10801 10798 10797 10794 10791 10785 10780 10776 10773 10769 10766 10763 10760 10757 10754 10751 10747 10743 10740 10736 10733 10729 10725 10722 10720 10716 10712 10705 10698 10693 10687 10681 10677 10672 10664 10660 10657 10652 10648 10644 10641 10636 10631 10626 10621 10616 10613 10609 10603 10598 10597 10593 10589
10858 10856 10856 10856 10855 10854 10854 10854 10853 10853 10852 10851 10848 10846 10843 10841 10839 10837 10835 10833 10833 10830 10825 10822 10821 10818 10814 10812 10810 10806 10803 10799 10795 10791 10789 10787 10783 10779 10774 10768 10765 10763 10760 10756 10753 10750 10747 10743 10739 10735 10731 10728 10725 10722 10717 10713 10709 10705 10700 10696 10691 10685 10679 10672 10668 10663 10657 10653 10649 10644 10639 10633 10629 10625 10620 10616 10611 10606 10602 10597 10591 10587 10585 10582 10579
10851 10849 10848 10847 10846 10846 10846 10847 10846 10845 10844 10843 10841 10839 10837 10834 10832 10830 10827 10825 10825 10823 10819 10815 10814 10813 10809 10806 10803 10801 10797 10794 10789 10786 10783 10779 10777 10774 10768 10762 10758 10757 10754 10749 10746 10743 10740 10736 10731 10727 10722 10718 10715 10711 10706 10701 10697 10692 10688 10685 10681 10676 10670 10665 10660 10655 10649 10643 10638 10632 10627 10622 10617 10613 10608 10603 10599 10596 10592 10587 10581 10577 10574 10570 10569
10845 10844 10842 10840 10838 10837 10837 10838 10838 10837 10836 10834 10833 10831 10829 10827 10825 10823 10820 10817 10816 10816 10814 10808 10805 10805 10804 10803 10802 10799 10795 10789 10784 10779 10775 10772 10770 10769 10765 10760 10755 10751 10747 10743 10739 10736 10732 10729 10725 10719 10714 10710 10706 10701 10696 10692 10688 10683 10678 10674 10671 10666 10660 10656 10652 10647 10642 10637 10630 10624 10619 10613 10607 10602 10596 10590 10585 10582 10580 10575 10571 10568 10564 10561 10559
10840 10838 10836 10834 10831 10829 10828 10830 10830 10829 10828 10826 10825 10823 10821 10819 10817 10815 10812 10810 10808 10808 10807 10803 10797 10796 10797 10797 10795 10791 10785 10780 10777 10772 10767 10764 10763 10762 10759 10756 10752 10749 10744 10736 10731 10727 10724 10721 10719 10713 10706 10702 10698 10693 10688 10684 10679 10674 10669 10665 10661 10656 10651 10646 10642 10637 10632 10628 10622 10615 10610 10604 10598 10592 10587 10580 10575 10570 10567 10563 10560 10557 10555 10553 10551
10834 10832 10829 10827 10824 10821 10821 10822 10822 10821 10820 10819 10817 10815 10813 10811 10810 10807 10804 10803 10801 10799 10799 10796 10791 10788 10787 10786 10783 10779 10774 10771 10768 10764 10760 10756 10753 10752 10750 10747 10746 10746 10741 10731 10722 10719 10716 10713 10711 10706 10700 10694 10689 10684 10680 10674 10669 10665 10660 10655 10650 10646 10641 10636 10631 10626 10621 10616 10611 10604 10598 10592 10587 10582 10576 10571 10566 10562 10557 10554 10551 10548 10546 10545 10544
10828 10825 10822 10819 10816 10814 10815 10815 10815 10814 10813 10812 10810 10808 10806 10804 10802 10800 10797 10795 10794 10791 10790 10789 10785 10781 10779 10775 10772 10769 10766 10763 10760 10756 10751 10746 10743 10742 10740 10738 10737 10735 10731 10724 10717 10713 10709 10705 10702 10698 10692 10687 10682 10677 10672 10667 10661 10656 10651 10646 10640 10636 10631 10626 10620 10615 10609 10604 10599 10593 10587 10580 10575 10570 10565 10560 10555 10552 10548 10544 10542 10540 10538 10537 10536
10820 10818 10816 10812 10808 10807 10808 10808 10807 10806 10805 10804 10803 10801 10799 10797 10796 10793 10790 10788 10786 10784 10782 10781 10778 10774 10771 10767 10764 10762 10760 10756 10752 10749 10744 10738 10734 10733 10731 10729 10726 10723 10719 10715 10711 10705 10701 10697 10694 10690 10686 10681 10677 10672 10666 10660 10654 10647 10641 10636 10631 10626 10622 10616 10610 10604 10598 10593 10588 10582 10576 10570 10564 10559 10554 10549 10545 10541 10538 10535 10533 10532 10531 10530 10529
10812 10810 10808 10805 10802 10800 10800 10800 10800 10799 10797 10796 10795 10793 10792 10791 10789 10786 10784 10781 10779 10776 10774 10773 10772 10769 10765 10761 10758 10756 10754 10750 10746 10742 10737 10730 10726 10724 10723 10720 10717 10713 10709 10706 10703 10697 10692 10689 10685 10682 10678 10673 10668 10663 10657 10651 10645 10638 10632 10626 10622 10617 10612 10606 10600 10593 10587 10582 10577 10571 10565 10560 10555 10550 10544 10539 10535 10532 10529 10527 10525 10524 10524 10523 10522
10803 10801 10799 10798 10797 10795 10794 10793 10792 10790 10789 10788 10787 10786 10785 10783 10781 10779 10777 10774 10772 10769 10766 10765 10764 10762 10759 10756 10754 10752 10748 10744 10740 10735 10729 10724 10719 10717 10715 10712 10708 10704 10701 10697 10693 10688 10683 10679 10675 10671 10668 10663 10658 10653 10647 10640 10634 10628 10622 10617 10612 10607 10602 10595 10589 10583 10577 10571 10566 10560 10555 10550 10545 10540 10535 10531 10527 10524 10521 10519 10517 10516 10517 10516 10516
10794 10793 10791 10790 10790 10789 10787 10785 10784 10783 10782 10781 10779 10778 10777 10775 10773 10772 10769 10766 10763 10761 10759 10757 10755 10753 10753 10752 10752 10749 10743 10737 10733 10728 10723 10719 10715 10711 10707 10703 10699 10695 10691 10687 10683 10679 10674 10668 10664 10661 10658 10653 10648 10643 10637 10630 10624 10618 10613 10607 10602 10597 10591 10584 10578 10572 10566 10561 10555 10550 10545 10540 10535 10531 10527 10523 10520 10517 10514 10512 10510 10509 10510 10510 10510
10786 10786 10784 10783 10782 10781 10779 10777 10776 10775 10775 10773 10771 10770 10769 10767 10765 10763 10761 10758 10755 10752 10750 10748 10747 10746 10747 10747 10745 10742 10735 10729 10724 10720 10715 10711 10707 10702 10697 10693 10690 10686 10682 10678 10674 10670 10664 10657 10652 10650 10648 10643 10636 10632 10627 10621 10615 10609 10603 10597 10592 10586 10580 10574 10568 10562 10556 10550 10545 10540 10535 10530 10526 10522 10519 10515 10512 10510 10508 10506 10504 10503 10504 10505 10504
10779 10779 10778 10776 10775 10773 10771 10770 10769 10769 10768 10765 10762 10762 10762 10759 10757 10754 10752 10750 10748 10744 10741 10738 10737 10737 10736 10734 10733 10732 10726 10719 10715 10710 10705 10701 10697 10692 10688 10684 10680 10676 10672 10668 10665 10661 10655 10648 10642 10638 10636 10632 10626 10620 10616 10611 10606 10599 10592 10586 10581 10576 10569 10562 10556 10551 10546 10540 10535 10530 10526 10521 10518 10514 10511 10508 10505 10504 10502 10500 10498 10498 10499 10499 10499
10773 10772 10771 10770 10767 10765 10764 10763 10762 10761 10760 10757 10754 10753 10753 10751 10749 10746 10744 10742 10739 10736 10733 10730 10727 10725 10724 10721 10721 10722 10717 10710 10705 10702 10697 10694 10690 10685 10680 10675 10670 10666 10661 10656 10653 10649 10645 10640 10634 10628 10623 10620 10614 10609 10605 10601 10596 10590 10582 10575 10569 10565 10559 10553 10546 10540 10535 10530 10525 10520 10516 10512 10509 10506 10503 10501 10499 10497 10496 10494 10493 10493 10494 10494 10495
10766 10765 10764 10762 10759 10757 10756 10755 10754 10753 10751 10748 10745 10744 10743 10742 10740 10737 10735 10733 10731 10728 10725 10721 10717 10716 10714 10710 10708 10708 10706 10701 10696 10694 10690 10686 10682 10677 10672 10666 10661 10656 10650 10644 10640 10635 10631 10629 10626 10621 10615 10611 10606 10600 10595 10590 10585 10581 10574 10566 10559 10553 10548 10542 10536 10531 10526 10521 10516 10512 10508 10504 10501 10498 10496 10494 10493 10491 10490 10488 10488 10488 10489 10490 10491
10758 10758 10756 10754 10751 10749 10748 10747 10746 10745 10743 10740 10737 10736 10734 10733 10731 10728 10725 10723 10722 10720 10717 10713 10709 10708 10705 10701 10696 10694 10694 10691 10687 10683 10679 10674 10670 10666 10662 10657 10652 10646 10640 10634 10628 10624 10620 10617 10614 10611 10606 10601 10596 10591 10585 10579 10573 10569 10564 10557 10550 10544 10537 10531 10525 10521 10517 10512 10508 10504 10501 10497 10494 10492 10490 10488 10487 10486 10485 10484 10483 10484 10485 10486 10487
10750 10750 10748 10744 10742 10741 10740 10738 10736 10736 10734 10731 10729 10727 10725 10724 10722 10720 10716 10714 10713 10711 10708 10704 10701 10698 10697 10694 10689 10686 10683 10680 10676 10672 10667 10663 10659 10655 10651 10647 10642 10637 10632 10625 10619 10614 10610 10607 10603 10599 10595 10590 10584 10579 10574 10568 10562 10557 10552 10546 10540 10534 10528 10522 10516 10511 10508 10504 10500 10497 10494 10491 10488 10486 10484 10483 10482 10481 10480 10479 10479 10479 10481 10482 10483
10740 10740 10738 10736 10733 10732 10730 10729 10727 10727 10725 10723 10721 10719 10717 10714 10712 10710 10708 10706 10704 10702 10699 10695 10691 10688 10685 10683 10680 10676 10673 10669 10665 10661 10657 10652 10648 10643 10639 10636 10632 10627 10622 10616 10609 10604 10601 10597 10593 10588 10583 10578 10573 10568 10563 10557 10550 10545 10540 10535 10529 10523 10518 10513 10508 10503 10500 10496 10493 10490 10488 10485 10482 10480 10479 10478 10477 10476 10476 10475 10475 10476 10477 10478 10480
10730 10730 10728 10726 10724 10722 10722 10721 10720 10718 10716 10714 10712 10710 10708 10705 10702 10700 10698 10695 10694 10692 10689 10685 10682 10678 10674 10672 10669 10665 10662 10658 10654 10650 10646 10641 10636 10632 10628 10624 10621 10617 10612 10606 10599 10593 10590 10587 10582 10576 10571 10566 10561 10556 10551 10546 10540 10533 10528 10523 10519 10514 10509 10504 10499 10495 10492 10489 10486 10483 10481 10478 10476 10475 10474 10473 10472 10472 10471 10471 10471 10472 10473 10475 10476
10721 10720 10719 10717 10714 10714 10714 10714 10713 10710 10707 10705 10703 10701 10698 10695 10693 10690 10687 10684 10682 10680 10677 10674 10671 10668 10665 10661 10658 10655 10651 10647 10643 10639 10635 10630 10625 10621 10617 10614 10611 10607 10602 10596 10589 10582 10578 10576 10571 10565 10559 10554 10549 10544 10539 10534 10529 10523 10517 10512 10508 10504 10500 10496 10491 10487 10484 10482 10479 10477 10474 10473 10471 10470 10469 10468 10468 10467 10467 10467 10468 10469 10470 10471 10473
10712 10712 10710 10708 10706 10706 10706 10705 10704 10701 10699 10696 10694 10691 10688 10685 10682 10680 10677 10674 10671 10668 10665 10662 10659 10656 10653 10650 10647 10643 10639 10636 10632 10628 10623 10618 10614 10609 10606 10602 10600 10596 10592 10587 10579 10572 10567 10564 10559 10554 10548 10542 10536 10532 10527 10522 10517 10512 10508 10503 10500 10496 10492 10488 10484 10480 10477 10475 10473 10471 10469 10468 10467 10465 10464 10464 10463 10463 10463 10463 10464 10465 10467 10468 10470
10703 10702 10701 10699 10697 10696 10697 10696 10694 10692 10690 10688 10685 10682 10679 10676 10673 10671 10668 10665 10662 10658 10654 10651 10648 10644 10641 10637 10634 10630 10627 10624 10620 10616 10612 10607 10602 10598 10595 10591 10587 10584 10582 10578 10571 10564 10558 10553 10547 10542 10537 10532 10526 10521 10516 10511 10507 10502 10498 10494 10491 10488 10484 10481 10477 10474 10471 10469 10467 10466 10464 10463 10462 10461 10460 10459 10459 10459 10459 10460 10460 10462 10463 10465 10467
10694 10693 10693 10691 10688 10687 10687 10687 10685 10684 10681 10678 10676 10673 10670 10667 10664 10662 10659 10656 10653 10649 10645 10640 10636 10633 10630 10625 10621 10619 10616 10613 10610 10606 10601 10596 10592 10588 10584 10580 10575 10571 10568 10565 10561 10554 10549 10543 10537 10530 10525 10521 10516 10511 10506 10502 10498 10494 10490 10487 10483 10480 10477 10474 10471 10468 10466 10464 10463 10461 10460 10459 10458 10456 10455 10455 10455 10455 10455 10456 10457 10458 10460 10462 10464
10686 10685 10684 10682 10680 10678 10678 10678 10676 10674 10672 10669 10666 10663 10660 10657 10655 10652 10649 10647 10643 10640 10636 10630 10625 10623 10619 10614 10609 10608 10606 10603 10600 10596 10591 10585 10581 10577 10572 10568 10565 10560 10555 10551 10547 10542 10537 10532 10526 10519 10514 10509 10506 10501 10497 10493 10489 10486 10482 10480 10477 10473 10470 10468 10465 10463 10461 10459 10458 10457 10456 10455 10453 10452 10451 10451 10450 10451 10451 10452 10453 10455 10457 10459 10461
10678 10677 10676 10675 10672 10671 10670 10669 10667 10664 10662 10659 10656 10653 10650 10648 10645 10642 10640 10637 10633 10629 10627 10622 10617 10613 10610 10604 10600 10597 10595 10592 10590 10586 10580 10574 10569 10565 10560 10555 10552 10549 10545 10539 10534 10530 10525 10520 10514 10507 10502 10499 10496 10492 10488 10484 10481 10478 10475 10472 10470 10467 10464 10462 10459 10457 10456 10454 10453 10453 10452 10450 10449 10448 10447 10447 10446 10447 10447 10448 10449 10451 10453 10456 10458
10669 10668 10668 10667 10664 10663 10661 10660 10657 10655 10652 10649 10646 10644 10640 10637 10634 10632 10629 10626 10622 10619 10616 10614 10610 10605 10600 10595 10591 10587 10583 10581 10579 10576 10570 10564 10558 10554 10549 10543 10539 10537 10533 10528 10523 10517 10513 10509 10503 10497 10492 10489 10486 10483 10479 10476 10474 10471 10468 10465 10463 10461 10459 10457 10455 10453 10451 10450 10449 10449 10448 10446 10445 10444 10443 10443 10443 10443 10443 10444 10445 10447 10450 10452 10455
10659 10659 10659 10657 10655 10654 10652 10650 10647 10645 10642 10639 10636 10634 10631 10627 10623 10621 10618 10615 10612 10608 10604 10603 10600 10595 10589 10585 10582 10577 10572 10568 10566 10563 10558 10552 10548 10543 10539 10533 10528 10525 10521 10517 10512 10506 10501 10497 10492 10488 10484 10481 10478 10474 10471 10468 10466 10464 10462 10459 10457 10456 10454 10452 10450 10448 10447 10446 10445 10444 10443 10442 10441 10440 10439 10439 10439 10439 10439 10440 10442 10444 10446 10449 10452
10650 10649 10648 10647 10645 10644 10642 10640 10637 10634 10631 10629 10626 10624 10620 10617 10614 10610 10607 10604 10601 10597 10593 10591 10589 10584 10578 10573 10571 10567 10561 10557 10554 10550 10545 10540 10536 10532 10527 10522 10518 10513 10510 10506 10502 10497 10492 10487 10483 10480 10476 10474 10471 10467 10464 10461 10459 10457 10455 10454 10452 10451 10449 10447 10445 10444 10442 10441 10441 10440 10439 10438 10437 10436 10435 10435 10435 10435 10435 10436 10438 10440 10443 10445 10448
10641 10640 10638 10637 10636 10634 10632 10629 10626 10623 10620 10619 10616 10613 10610 10607 10604 10600 10596 10593 10590 10586 10582 10580 10578 10574 10567 10562 10559 10555 10550 10545 10542 10538 10533 10528 10524 10520 10515 10511 10506 10502 10499 10496 10492 10488 10484 10480 10476 10472 10469 10467 10464 10462 10459 10456 10454 10452 10450 10449 10447 10446 10444 10443 10441 10439 10438 10437 10437 10436 10435 10434 10433 10432 10432 10431 10431 10431 10432 10432 10434 10436 10439 10442 10445
10631 10630 10628 10627 10626 10624 10621 10618 10615 10612 10610 10609 10605 10601 10598 10596 10593 10589 10586 10582 10579 10575 10571 10569 10567 10563 10557 10552 10547 10543 10539 10534 10530 10526 10521 10517 10512 10508 10504 10500 10496 10492 10489 10486 10483 10479 10476 10472 10469 10466 10463 10461 10459 10457 10454 10452 10449 10447 10445 10444 10443 10441 10440 10439 10437 10436 10435 10433 10433 10432 10431 10431 10430 10429 10428 10428 10428 10428 10428 10429 10430 10432 10435 10438 10441
10621 10618 10617 10616 10615 10613 10610 10607 10604 10601 10600 10598 10594 10589 10585 10584 10582 10579 10575 10571 10567 10564 10561 10558 10555 10551 10546 10541 10536 10531 10527 10522 10518 10514 10509 10504 10501 10497 10493 10489 10486 10483 10480 10477 10474 10471 10468 10465 10462 10460 10458 10456 10454 10452 10449 10447 10445 10442 10441 10439 10438 10437 10436 10434 10433 10432 10431 10430 10429 10428 10428 10427 10426 10425 10425 10424 10424 10424 10424 10425 10426 10428 10431 10434 10437
10610 10607 10605 10604 10603 10601 10599 10596 10592 10590 10588 10587 10583 10579 10575 10573 10570 10567 10564 10559 10555 10552 10550 10547 10544 10540 10535 10529 10524 10519 10514 10510 10506 10502 10498 10493 10489 10486 10483 10480 10477 10474 10472 10469 10466 10464 10462 10459 10457 10455 10453 10451 10449 10447 10445 10442 10440 10438 10436 10435 10433 10432 10431 10430 10429 10429 10427 10426 10426 10425 10424 10424 10423 10422 10421 10421 10421 10421 10421 10421 10423 10424 10427 10430 10433
10599 10596 10594 10593 10591 10590 10587 10584 10581 10579 10577 10574 10571 10568 10565 10561 10558 10555 10552 10548 10544 10540 10538 10536 10532 10528 10523 10518 10513 10508 10503 10498 10494 10491 10488 10484 10479 10476 10474 10472 10470 10467 10465 10462 10460 10458 10456 10454 10452 10450 10448 10446 10444 10442 10440 10438 10435 10433 10432 10430 10429 10428 10428 10427 10426 10425 10423 10423 10422 10421 10421 10420 10420 10419 10419 10418 10418 10418 10418 10418 10419 10421 10423 10426 10429
10587 10585 10583 10582 10580 10578 10576 10572 10569 10568 10566 10562 10559 10556 10553 10550 10547 10544 10541 10538 10534 10530 10527 10524 10521 10517 10512 10508 10503 10498 10493 10489 10484 10481 10478 10475 10471 10468 10466 10464 10462 10460 10458 10457 10455 10453 10451 10449 10447 10445 10443 10442 10440 10438 10436 10434 10432 10429 10428 10426 10425 10424 10424 10423 10422 10420 10419 10419 10418 10417 10417 10417 10416 10416 10415 10415 10415 10415 10415 10415 10416 10417 10419 10422 10425
10577 10575 10573 10571 10569 10566 10564 10561 10558 10557 10555 10552 10549 10546 10543 10539 10537 10534 10531 10528 10524 10520 10516 10513 10509 10506 10501 10497 10492 10488 10483 10479 10476 10472 10469 10466 10463 10461 10459 10457 10456 10455 10453 10451 10449 10448 10446 10444 10442 10440 10439 10437 10436 10434 10432 10430 10428 10426 10424 10422 10421 10420 10420 10419 10417 10416 10415 10415 10414 10414 10413 10413 10413 10413 10412 10412 10412 10412 10412 10412 10412 10413 10415 10417 10420
10566 10565 10563 10561 10558 10555 10552 10550 10548 10547 10544 10541 10539 10537 10534 10530 10527 10524 10521 10518 10514 10510 10506 10501 10498 10494 10490 10486 10482 10478 10474 10471 10468 10465 10463 10460 10457 10455 10453 10451 10450 10449 10448 10446 10444 10443 10441 10439 10437 10436 10434 10432 10431 10430 10428 10426 10424 10422 10421 10419 10418 10416 10415 10414 10413 10412 10412 10411 10411 10410 10410 10410 10410 10409 10409 10408 10409 10409 10409 10409 10409 10410 10412 10414 10416